Wind_Speed
36 31 28 28 30 31 31 30 29 28 27 26 26 25 24 23 23 23 24 24 25 25 25 26 28 29 30 30 31 31 32 34 35 36 36 37 38 39 39 39 40 40
44 40 37 37 38 37 35 33 33 33 32 31 32 31 29 28 26 26 26 26 26 26 26 27 28 29 29 29 30 30 30 31 32 33 34 35 36 37 37 38 38 39
48 47 47 45 44 43 41 39 38 37 36 36 36 36 35 33 32 31 30 29 29 29 29 30 30 31 31 31 32 32 32 32 33 34 35 36 37 38 38 39 39 39
52 51 50 48 47 47 46 45 43 41 40 40 40 39 38 37 37 37 34 32 31 31 31 31 32 32 32 33 34 34 34 35 36 36 37 38 39 40 41 41 41 41
57 55 52 50 49 48 48 47 45 43 43 43 42 41 40 40 41 40 38 35 34 34 34 34 34 34 34 34 35 36 36 37 38 39 40 41 42 42 43 43 43 43
56 54 51 49 47 47 47 46 46 46 46 45 44 44 44 44 44 43 41 39 38 38 38 38 38 38 38 38 38 38 39 39 40 40 41 42 43 44 44 44 44 44
55 54 52 50 49 48 48 47 48 48 48 47 46 46 47 46 45 43 41 40 40 40 40 41 42 42 42 42 42 42 42 42 42 42 43 44 44 45 45 45 45 45
55 55 55 54 52 51 49 49 49 48 47 47 47 47 47 47 46 45 43 43 43 43 43 44 45 46 46 46 46 46 46 46 46 46 46 46 47 47 47 48 48 48
55 55 55 55 54 53 51 50 50 50 49 49 49 48 48 48 48 48 48 49 48 48 48 48 49 49 49 49 49 49 48 48 49 49 50 50 50 50 50 51 51 52
58 58 57 57 57 56 55 54 54 54 53 53 52 52 51 51 51 50 49 51 53 53 52 51 51 51 52 52 52 52 51 51 51 52 51 51 52 52 52 52 53 53
61 63 63 62 62 61 59 58 58 57 57 56 55 54 54 54 52 50 50 53 56 56 55 55 54 54 54 54 55 55 54 54 54 54 53 53 53 53 52 52 52 52
64 67 68 68 67 65 63 62 61 61 60 59 58 57 56 55 54 55 58 60 59 58 58 58 57 56 56 57 58 58 57 57 56 55 55 55 54 53 52 52 51 51
68 69 70 71 70 68 67 66 65 65 65 64 63 61 60 60 61 64 65 63 60 59 59 59 59 59 60 60 60 60 59 58 58 57 57 56 55 54 52 51 50 50
71 72 72 72 71 70 68 68 68 68 68 69 68 67 66 67 68 67 65 62 61 61 61 61 62 62 62 63 63 62 61 60 59 58 57 56 55 54 52 50 49 48
76 76 76 74 73 71 68 67 67 67 68 68 69 70 70 69 68 66 64 63 63 63 62 62 63 63 64 65 64 63 63 62 60 59 57 56 55 53 51 49 47 46
77 78 79 77 76 75 72 70 70 71 71 71 72 72 71 70 69 67 67 66 65 65 64 64 64 64 65 66 65 64 64 62 60 59 58 56 54 51 49 47 45 45
74 75 77 77 78 77 76 76 78 78 77 75 74 72 71 71 70 69 69 68 67 67 66 65 64 63 64 64 64 63 63 62 61 60 58 56 53 49 47 46 44 42
73 73 74 75 76 77 78 79 81 80 79 77 75 73 71 71 71 71 69 68 68 68 67 67 65 63 63 63 62 62 62 61 60 58 56 54 52 49 49 47 44 42
73 74 74 73 74 74 76 77 78 78 79 78 77 75 71 68 69 69 69 68 68 68 68 67 64 62 62 62 61 62 62 61 60 58 57 56 54 53 52 49 46 46
72 73 74 74 74 74 74 74 75 75 75 75 75 73 71 69 70 70 69 69 70 69 69 68 65 63 64 65 65 65 65 64 65 63 61 59 58 54 49 43 43 47
72 73 74 74 74 74 75 75 75 75 75 75 75 74 74 75 74 74 74 74 73 72 71 70 68 68 71 72 72 72 72 71 71 69 65 62 59 56 52 49 49 51
72 73 74 74 75 76 76 76 76 76 76 77 77 77 77 78 78 79 79 78 78 78 77 76 74 75 77 78 78 78 77 75 74 71 67 64 61 61 61 61 62 61
73 74 75 76 76 77 78 78 79 79 79 79 80 80 80 80 81 81 81 82 81 82 82 81 80 81 82 81 81 80 78 76 73 70 68 65 63 63 63 64 65 66
75 76 77 78 79 80 80 80 81 81 82 82 83 83 83 83 84 84 84 84 83 83 83 82 79 79 80 80 78 77 75 74 71 69 67 65 64 65 65 66 67 69
77 78 79 80 82 83 83 83 84 84 84 85 85 86 86 86 86 85 83 83 81 80 79 77 73 72 73 73 72 71 70 69 67 66 66 67 67 67 68 69 69 70
75 76 78 79 80 81 82 82 83 83 83 83 83 83 83 82 80 79 78 77 75 74 72 70 68 67 67 68 68 68 67 67 66 65 67 69 69 68 70 71 71 72
Wind_Direction
257 260 266 271 274 275 274 273 273 276 281 287 287 281 277 277 276 275 273 271 268 267 265 264 262 262 261 260 260 260 259 259 259 259 259 258 258 258 258 258 258 258
254 257 265 270 271 270 269 270 273 277 280 284 286 284 279 277 278 279 279 275 272 270 270 269 270 269 267 265 264 263 262 261 261 260 260 260 260 260 260 260 260 260
252 255 261 266 266 265 265 266 270 275 278 279 281 282 279 276 277 280 281 278 274 273 274 274 275 274 272 271 270 269 268 267 266 265 264 263 264 265 265 265 265 265
251 253 257 260 261 262 264 267 270 274 276 277 277 277 275 275 277 280 281 279 276 274 275 275 276 276 275 275 274 274 273 272 271 269 268 268 268 269 269 269 268 267
251 254 257 261 262 263 266 269 272 273 273 274 274 273 273 274 278 280 279 278 276 274 275 276 276 276 276 276 275 274 274 273 272 271 271 270 270 270 271 270 270 270
249 253 257 260 263 265 267 269 271 271 271 272 272 273 274 275 278 279 277 277 277 276 275 275 276 276 276 276 275 274 274 273 272 272 271 271 271 271 272 272 271 271
249 252 255 257 260 263 265 267 268 270 271 272 272 274 275 277 278 277 276 277 279 279 279 279 279 278 278 279 279 279 278 276 275 274 273 273 273 274 274 274 274 273
252 253 255 257 258 260 263 265 266 267 269 270 270 272 273 275 277 275 274 277 279 279 281 282 283 281 280 281 282 283 283 283 282 281 280 279 279 279 279 278 278 277
253 254 256 258 259 260 262 263 265 264 265 265 266 268 270 272 273 272 273 277 279 278 279 280 281 280 279 279 280 281 282 283 283 283 282 282 282 282 282 281 280 279
251 253 254 256 257 259 260 261 262 262 263 263 265 266 267 268 270 270 271 275 277 278 278 279 280 279 278 278 278 279 281 282 282 281 280 280 281 281 282 281 280 279
251 252 253 254 255 257 258 259 260 261 262 263 265 266 267 268 269 270 273 275 276 276 278 279 279 279 277 277 278 279 281 281 281 280 280 280 280 281 281 281 281 280
254 254 255 256 257 258 259 260 261 262 262 263 264 266 267 268 269 272 278 279 276 276 278 280 280 279 278 278 279 280 280 280 280 280 280 281 282 282 282 282 282 281
257 257 258 259 260 262 263 264 265 265 265 265 266 267 269 271 273 276 279 278 275 275 279 281 281 280 280 280 280 281 281 281 281 282 282 283 283 284 284 284 283 282
258 259 260 261 262 263 265 267 268 268 268 268 268 270 272 275 276 277 277 275 274 276 279 281 281 281 282 282 282 282 283 283 283 283 284 284 285 285 285 285 284 283
260 261 261 262 263 264 267 269 270 270 270 270 271 273 275 276 276 276 275 275 275 276 278 280 281 281 282 283 283 284 284 284 285 285 285 286 286 287 286 285 284 283
260 261 261 262 263 264 265 265 266 267 268 269 271 272 273 274 274 274 275 275 276 276 277 278 279 281 282 283 284 284 284 284 285 285 286 286 286 285 285 283 282 282
258 259 260 261 262 262 262 262 264 265 267 269 270 271 272 273 274 275 275 276 276 276 276 277 278 279 280 281 282 282 282 283 283 284 284 284 284 283 282 282 281 280
258 259 260 260 261 262 262 263 265 267 268 269 270 271 272 274 274 275 275 276 276 276 276 277 279 279 279 279 279 279 280 281 281 281 282 281 281 280 280 280 279 275
259 259 260 261 261 262 263 264 265 266 267 268 269 270 271 271 271 272 273 274 275 276 277 278 279 279 278 277 277 278 279 279 279 280 280 279 279 280 281 281 277 270
259 260 260 261 262 262 263 264 264 265 266 267 267 267 267 267 268 269 270 272 273 275 276 278 278 277 276 276 276 277 277 277 278 279 279 279 279 279 278 276 270 266
259 260 260 261 261 262 263 263 264 265 265 266 266 266 266 266 267 268 269 270 272 273 274 276 276 276 276 277 277 276 277 277 278 278 278 277 277 274 270 265 263 262
259 260 260 261 261 262 262 263 263 264 265 266 266 267 267 268 269 270 270 271 272 273 274 275 276 276 276 277 277 277 278 278 278 277 277 275 274 272 269 266 264 262
260 261 261 261 262 262 262 263 263 264 265 265 266 267 268 269 270 271 272 273 274 275 275 276 276 277 277 277 277 277 277 277 276 275 274 274 272 270 268 266 265 264
261 261 262 262 262 263 263 263 264 264 265 265 266 267 268 269 270 271 272 273 274 275 275 276 276 276 275 275 274 274 274 273 272 272 271 271 269 268 267 266 264 264
262 262 262 262 263 263 263 264 265 265 266 266 267 268 269 269 270 271 272 273 273 273 274 274 273 272 272 272 271 271 271 271 270 270 269 268 267 267 268 267 266 266
263 263 263 263 264 264 264 265 266 266 267 267 268 268 269 269 270 271 271 271 271 271 271 271 270 269 269 270 270 270 270 270 270 270 269 269 268 267 267 268 268 268
Height
10612 10611 10610 10609 10610 10611 10612 10612 10612 10612 10612 10613 10614 10615 10615 10616 10616 10616 10617 10618 10618 10619 10620 10620 10621 10621 10621 10622 10622 10622 10622 10622 10622 10622 10622 10622 10622 10622 10622 10622 10622 10621
10608 10608 10606 10606 10606 10607 10607 10607 10607 10608 10608 10609 10610 10611 10612 10612 10612 10613 10613 10614 10614 10615 10616 10616 10616 10617 10617 10617 10617 10617 10617 10617 10617 10617 10616 10617 10617 10617 10617 10617 10616 10616
10602 10602 10602 10602 10602 10602 10602 10603 10603 10603 10604 10604 10605 10606 10607 10608 10608 10609 10609 10610 10610 10611 10611 10611 10612 10612 10612 10612 10612 10611 10611 10611 10611 10611 10611 10611 10611 10611 10611 10611 10610 10610
10596 10596 10596 10597 10597 10597 10598 10598 10598 10599 10599 10599 10600 10601 10602 10602 10603 10604 10605 10605 10606 10606 10606 10607 10607 10607 10606 10606 10606 10606 10606 10606 10606 10606 10606 10606 10605 10605 10605 10605 10605 10604
10591 10591 10591 10592 10592 10593 10593 10593 10593 10593 10593 10594 10595 10596 10597 10597 10598 10598 10600 10600 10601 10601 10602 10602 10602 10602 10602 10601 10601 10601 10601 10601 10601 10601 10600 10600 10600 10600 10599 10599 10599 10598
10587 10587 10586 10586 10587 10587 10587 10588 10587 10587 10588 10589 10590 10590 10591 10591 10592 10592 10593 10594 10595 10596 10596 10596 10596 10596 10596 10596 10596 10596 10596 10596 10596 10595 10595 10595 10594 10594 10594 10593 10593 10592
10582 10581 10580 10580 10580 10581 10581 10582 10582 10581 10582 10583 10583 10584 10584 10585 10585 10586 10587 10587 10588 10588 10589 10589 10589 10590 10590 10590 10590 10590 10590 10590 10590 10590 10589 10589 10589 10588 10588 10588 10587 10587
10575 10575 10574 10574 10574 10575 10576 10576 10576 10577 10577 10577 10577 10578 10578 10579 10579 10580 10580 10580 10581 10581 10582 10582 10582 10582 10582 10582 10582 10582 10582 10582 10582 10582 10582 10582 10581 10581 10581 10581 10580 10580
10568 10568 10568 10567 10568 10569 10570 10570 10570 10571 10571 10571 10571 10572 10573 10573 10574 10574 10574 10574 10575 10575 10575 10575 10575 10575 10575 10575 10575 10575 10575 10575 10575 10574 10574 10573 10573 10573 10573 10573 10573 10572
10560 10560 10561 10561 10561 10562 10563 10564 10565 10565 10565 10565 10565 10566 10566 10567 10568 10568 10568 10568 10568 10568 10568 10568 10568 10569 10569 10569 10569 10569 10569 10569 10569 10568 10568 10567 10567 10566 10566 10566 10566 10565
10552 10553 10554 10554 10554 10555 10557 10558 10559 10559 10560 10559 10559 10559 10559 10560 10561 10561 10562 10562 10561 10561 10561 10561 10561 10562 10562 10562 10562 10562 10562 10562 10562 10561 10561 10561 10560 10560 10560 10559 10559 10558
10546 10546 10546 10547 10548 10549 10551 10552 10553 10553 10553 10553 10553 10553 10553 10553 10553 10554 10554 10554 10554 10554 10553 10553 10554 10554 10554 10554 10554 10554 10555 10555 10554 10554 10554 10553 10553 10553 10553 10552 10552 10551
10539 10539 10540 10541 10542 10544 10545 10545 10546 10546 10546 10546 10545 10545 10546 10546 10546 10546 10546 10546 10546 10546 10545 10545 10545 10546 10546 10546 10546 10546 10546 10547 10546 10546 10546 10545 10545 10545 10545 10545 10545 10544
10532 10532 10534 10535 10537 10539 10539 10538 10538 10538 10538 10537 10537 10538 10539 10539 10539 10538 10538 10538 10538 10538 10538 10537 10537 10537 10537 10536 10536 10537 10537 10538 10538 10538 10538 10537 10538 10538 10538 10538 10538 10537
10524 10525 10527 10530 10531 10533 10534 10533 10530 10530 10530 10530 10530 10531 10531 10531 10531 10530 10530 10530 10530 10530 10530 10530 10530 10529 10528 10527 10528 10528 10528 10528 10529 10529 10529 10530 10531 10531 10531 10531 10531 10530
10518 10518 10520 10523 10524 10526 10529 10527 10523 10522 10523 10523 10524 10524 10524 10523 10523 10522 10522 10523 10522 10522 10522 10522 10523 10523 10521 10519 10520 10519 10519 10519 10520 10520 10521 10523 10524 10525 10526 10526 10525 10524
10512 10512 10512 10514 10516 10518 10520 10518 10515 10515 10516 10517 10518 10518 10517 10515 10515 10514 10514 10514 10514 10514 10515 10515 10517 10517 10515 10512 10512 10511 10510 10511 10512 10513 10514 10515 10517 10519 10520 10521 10521 10520
10504 10504 10504 10505 10506 10507 10507 10506 10506 10506 10507 10508 10509 10510 10510 10508 10506 10505 10506 10506 10506 10506 10507 10508 10510 10510 10507 10505 10504 10503 10503 10504 10504 10506 10507 10508 10511 10513 10514 10516 10517 10515
10495 10495 10495 10496 10496 10496 10496 10496 10496 10497 10497 10498 10500 10502 10504 10501 10498 10498 10498 10498 10497 10497 10498 10500 10503 10502 10497 10496 10496 10495 10495 10496 10497 10499 10501 10501 10504 10506 10507 10511 10511 10506
10487 10486 10486 10486 10486 10486 10486 10486 10487 10487 10488 10488 10490 10492 10494 10492 10491 10491 10491 10490 10490 10489 10489 10491 10495 10494 10489 10487 10488 10487 10487 10487 10488 10491 10494 10495 10497 10500 10502 10504 10501 10496
10478 10477 10477 10476 10476 10476 10476 10477 10477 10477 10478 10478 10479 10480 10481 10481 10481 10482 10482 10482 10482 10482 10482 10483 10485 10483 10480 10479 10478 10478 10478 10479 10479 10482 10486 10488 10489 10490 10492 10492 10489 10487
10468 10468 10467 10467 10467 10467 10467 10467 10467 10468 10468 10468 10469 10469 10470 10471 10471 10470 10471 10473 10473 10473 10474 10475 10476 10474 10470 10469 10468 10468 10469 10469 10470 10472 10475 10478 10479 10479 10478 10478 10477 10477
10458 10458 10457 10457 10457 10457 10457 10458 10458 10458 10459 10459 10459 10459 10460 10461 10461 10461 10461 10462 10463 10463 10463 10465 10467 10464 10460 10459 10459 10458 10459 10459 10461 10462 10464 10466 10468 10467 10467 10467 10466 10466
10448 10448 10448 10447 10446 10446 10447 10448 10447 10448 10449 10449 10450 10450 10451 10451 10451 10452 10453 10452 10453 10453 10452 10454 10457 10454 10449 10449 10449 10448 10449 10449 10450 10452 10454 10455 10456 10456 10456 10457 10456 10456
10437 10437 10437 10437 10436 10436 10437 10437 10437 10438 10438 10439 10439 10440 10441 10441 10442 10443 10443 10442 10442 10442 10441 10443 10446 10443 10438 10438 10438 10438 10438 10439 10441 10443 10444 10445 10445 10446 10446 10446 10446 10446
10426 10426 10426 10426 10425 10425 10427 10427 10427 10427 10428 10428 10428 10429 10430 10432 10433 10433 10433 10432 10432 10432 10432 10433 10433 10431 10428 10427 10427 10428 10428 10430 10432 10434 10434 10433 10434 10435 10435 10435 10435 10436